Powrót do katalogu

CZ-4 DEB

AktywnyPO
NORAD 26123·DEBRIS·🇨🇳 China

Wystrzelony Oct 14, 1999 z Taiyuan Satellite Launch Center

Loading…

Następne Przeloty (najbliższe 24 godziny)

TLE

ŚwieżeSource: Space-Track

Epoka: Sep 14, 2026, 01:03 UTC

1 26123U 99057K   26257.04416786  .00001712  00000-0  30325-3 0  9999
2 26123  98.6631 274.6629 0053226 352.6928   7.3493 14.67864480403548

Śledź CZ-4 DEB w czasie rzeczywistym z AllMySat

Download on the App Store